DW6801 Kvistgard DK current weather conditions

sailwx.info

Wind from 228 at 7 knots gusting 13

Air temperature 5.0° C
Dewpoint 4.0° C

Last reported at 2020-Jan-26 01:09 UTC.
Time now 2020-Jan-26 01:40 UTC

Location: N 55°59' E 012°30'.
View on Google Maps.

See reports from other nearby stations

  
Tides and Currents Weather Stations Pressure Air Temp Water Temp Dewpoint Dewpoint Depression Visibility Wind Speed Wind Dir Waves Ship Positions
date/time (UTC)wind fromknots sea level pressurealtimeterstation pressurevisibilityair tempwater tempwave heightnotes
2020-Jan-26 01:09 228 7 gusting 13 5.0
2020-Jan-26 01:00 231 6 gusting 13 5.0
2020-Jan-26 00:51 224 6 gusting 12 5.0
2020-Jan-26 00:42 226 6 gusting 12 5.0
2020-Jan-26 00:33 227 6 gusting 12 5.0
2020-Jan-26 00:24 227 6 gusting 13 5.0
2020-Jan-26 00:15 219 6 gusting 13 5.0
2020-Jan-26 00:06 219 6 gusting 12 5.0
2020-Jan-25 23:57 213 4 gusting 10 5.0
2020-Jan-25 23:48 215 5 gusting 11 5.0
2020-Jan-25 23:39 221 5 gusting 11 5.0
2020-Jan-25 23:30 219 4 gusting 9 5.0
2020-Jan-25 23:21 209 5 gusting 11 5.0
2020-Jan-25 23:12 209 5 gusting 10 5.0
2020-Jan-25 23:03 217 4 gusting 8 5.0
2020-Jan-25 22:54 215 4 gusting 7 5.0
2020-Jan-25 22:45 220 3 gusting 6 5.0
2020-Jan-25 22:36 208 3 gusting 8 5.0
2020-Jan-25 22:27 218 2 gusting 6 5.0
2020-Jan-25 22:18 219 4 gusting 7 4.4
2020-Jan-25 22:09 221 4 gusting 7 4.4
2020-Jan-25 22:00 229 4 gusting 9 5.0
2020-Jan-25 21:51 233 5 gusting 9 5.0
2020-Jan-25 21:42 233 6 gusting 10 5.6
2020-Jan-25 21:33 237 7 gusting 13 5.6
2020-Jan-25 21:24 243 8 gusting 15 5.6
2020-Jan-25 21:15 247 7 gusting 12 5.6
2020-Jan-25 21:06 246 9 gusting 14 5.6
2020-Jan-25 20:57 241 9 gusting 16 5.6
2020-Jan-25 20:48 240 8 gusting 15 5.6
2020-Jan-25 20:39 241 7 gusting 15 5.6
2020-Jan-25 20:30 238 8 gusting 14 5.6
2020-Jan-25 20:21 242 7 gusting 14 6.1
2020-Jan-25 20:12 243 7 gusting 13 6.1
2020-Jan-25 20:03 243 7 gusting 13 6.1
2020-Jan-25 19:54 241 7 gusting 13 6.1
2020-Jan-25 19:45 246 7 gusting 14 6.1
2020-Jan-25 19:36 241 6 gusting 13 6.1
2020-Jan-25 19:27 244 7 gusting 12 6.1
2020-Jan-25 19:18 240 6 gusting 13 6.1
2020-Jan-25 19:09 242 6 gusting 13 6.1
2020-Jan-25 19:00 244 7 gusting 10 6.1
2020-Jan-25 18:51 243 6 gusting 13 6.1
2020-Jan-25 18:42 237 6 gusting 13 6.1
2020-Jan-25 18:33 237 4 gusting 9 6.1
2020-Jan-25 18:24 231 4 gusting 8 6.1
2020-Jan-25 18:15 227 4 gusting 8 6.1
2020-Jan-25 18:06 233 4 gusting 8 6.7
2020-Jan-25 17:57 230 4 gusting 8 6.7
2020-Jan-25 17:48 236 5 gusting 9 6.7
2020-Jan-25 17:39 236 5 gusting 9 6.7
2020-Jan-25 17:30 236 5 gusting 8 6.1
2020-Jan-25 17:21 241 4 gusting 8 6.1
2020-Jan-25 17:12 238 4 gusting 8 6.1
2020-Jan-25 17:03 230 3 gusting 7 6.1
2020-Jan-25 16:54 249 3 gusting 7 6.1
2020-Jan-25 16:45 244 4 gusting 7 6.1
2020-Jan-25 16:36 235 5 gusting 8 6.1
2020-Jan-25 16:27 236 4 gusting 8 6.1
2020-Jan-25 16:18 239 3 gusting 6 6.1
2020-Jan-25 16:09 241 3 gusting 7 6.1
2020-Jan-25 16:00 245 4 gusting 6 6.1
2020-Jan-25 15:51 245 4 gusting 7 6.1
2020-Jan-25 15:42 244 4 gusting 7 6.1
2020-Jan-25 15:33 240 4 gusting 8 6.1
2020-Jan-25 15:24 239 5 gusting 9 6.1
2020-Jan-25 15:15 244 4 gusting 7 6.1
2020-Jan-25 15:06 250 4 gusting 6 6.1
2020-Jan-25 14:57 252 6 gusting 8 6.1
2020-Jan-25 14:48 251 6 gusting 10 6.1
2020-Jan-25 14:39 258 6 gusting 9 6.1
2020-Jan-25 14:30 254 6 gusting 9 6.1
2020-Jan-25 14:21 253 6 gusting 10 6.7
2020-Jan-25 14:12 249 6 gusting 10 6.7
2020-Jan-25 14:03 260 5 gusting 9 6.7
2020-Jan-25 13:54 252 7 gusting 12 6.7
2020-Jan-25 13:45 252 8 gusting 13 6.7
2020-Jan-25 13:36 251 7 gusting 12 6.7
2020-Jan-25 13:27 249 8 gusting 13 6.7
2020-Jan-25 13:18 250 7 gusting 13 7.2
2020-Jan-25 13:09 251 6 gusting 9 7.2
2020-Jan-25 13:00 254 7 gusting 13 6.7
2020-Jan-25 12:51 251 6 gusting 10 7.2
2020-Jan-25 12:42 257 7 gusting 12 7.2
2020-Jan-25 12:33 255 7 gusting 12 7.8
2020-Jan-25 12:24 253 7 gusting 13 7.8
2020-Jan-25 12:15 270 6 gusting 13 7.8
2020-Jan-25 12:06 259 6 gusting 13 7.8
2020-Jan-25 11:57 265 6 gusting 11 7.2
2020-Jan-25 11:48 256 6 gusting 11 6.7
2020-Jan-25 11:39 261 6 gusting 11 6.7
2020-Jan-25 11:30 271 6 gusting 11 7.2
2020-Jan-25 11:21 258 6 gusting 11 7.2
2020-Jan-25 11:12 267 6 gusting 13 6.7
2020-Jan-25 11:03 268 6 gusting 12 6.1
2020-Jan-25 10:54 257 6 gusting 11 6.1
2020-Jan-25 10:45 266 6 gusting 11 6.1
2020-Jan-25 10:36 263 6 gusting 16 6.1
2020-Jan-25 10:27 271 5 gusting 9 6.1
2020-Jan-25 10:18 267 6 gusting 10 6.1
2020-Jan-25 10:09 269 5 gusting 9 6.1
2020-Jan-25 10:00 264 6 gusting 10 6.1
2020-Jan-25 09:51 256 7 gusting 12 5.6
2020-Jan-25 09:42 258 6 gusting 10 5.6
2020-Jan-25 09:33 261 7 gusting 14 5.6
2020-Jan-25 09:24 257 7 gusting 13 5.6
2020-Jan-25 09:15 254 7 gusting 13 5.6
2020-Jan-25 09:06 254 7 gusting 12 5.6
2020-Jan-25 08:57 251 7 gusting 11 5.0
2020-Jan-25 08:48 252 6 gusting 12 5.0
2020-Jan-25 08:39 255 8 gusting 13 5.0
2020-Jan-25 08:30 251 7 gusting 13 5.0
2020-Jan-25 08:21 249 6 gusting 10 5.0
2020-Jan-25 08:12 251 6 gusting 12 4.4
2020-Jan-25 08:03 247 6 gusting 12 4.4
2020-Jan-25 07:54 247 6 gusting 12 4.4
2020-Jan-25 07:45 248 6 gusting 11 4.4
2020-Jan-25 07:36 245 6 gusting 9 4.4
2020-Jan-25 07:27 246 6 gusting 9 4.4
2020-Jan-25 07:18 250 6 gusting 11 4.4
2020-Jan-25 07:09 253 6 gusting 9 4.4
2020-Jan-25 07:00 250 6 gusting 11 4.4
2020-Jan-25 06:51 248 6 gusting 10 4.4
2020-Jan-25 06:42 255 6 gusting 11 4.4
2020-Jan-25 06:33 252 6 gusting 10 4.4
2020-Jan-25 06:24 250 5 gusting 10 3.9
2020-Jan-25 06:15 252 6 gusting 11 3.9
2020-Jan-25 06:06 249 6 gusting 10 3.9
2020-Jan-25 05:57 247 6 gusting 9 3.9
2020-Jan-25 05:48 248 6 gusting 8 3.9
2020-Jan-25 05:39 245 6 gusting 9 3.9
2020-Jan-25 05:30 252 6 gusting 10 3.9
2020-Jan-25 05:21 256 6 gusting 10 3.9
2020-Jan-25 05:12 253 7 gusting 11 3.9
2020-Jan-25 05:03 250 7 gusting 13 4.4
2020-Jan-25 04:54 252 7 gusting 12 4.4
2020-Jan-25 04:45 252 7 gusting 12 4.4
2020-Jan-25 04:36 253 6 gusting 10 3.9
2020-Jan-25 04:27 251 6 gusting 10 4.4
2020-Jan-25 04:18 255 6 gusting 12 4.4
2020-Jan-25 04:09 257 7 gusting 12 4.4
2020-Jan-25 04:00 257 7 gusting 13 4.4
2020-Jan-25 03:51 260 6 gusting 12 4.4
2020-Jan-25 03:42 259 7 gusting 12 4.4
2020-Jan-25 03:33 264 7 gusting 13 4.4
2020-Jan-25 03:24 261 7 gusting 13 4.4
2020-Jan-25 03:15 255 8 gusting 13 4.4
2020-Jan-25 03:06 261 7 gusting 12 4.4
2020-Jan-25 02:57 261 7 gusting 13 5.0
2020-Jan-25 02:48 265 7 gusting 15 5.0
2020-Jan-25 02:39 264 8 gusting 14 5.0
2020-Jan-25 02:30 264 8 gusting 16 5.0
2020-Jan-25 02:21 265 6 gusting 13 5.0
2020-Jan-25 02:12 254 7 gusting 13 5.0
2020-Jan-25 02:03 255 8 gusting 13 5.0
2020-Jan-25 01:54 258 8 gusting 13 5.0
2020-Jan-25 01:45 252 8 gusting 14 5.6
2020-Jan-25 01:36 263 6 gusting 12 5.6
2020-Jan-25 01:27 264 6 gusting 13 5.6
2020-Jan-25 01:18 257 9 gusting 14 5.6
2020-Jan-25 01:09 262 8 gusting 15 5.6
2020-Jan-25 01:00 259 9 gusting 19 5.6
2020-Jan-25 00:51 261 8 gusting 16 5.6
2020-Jan-25 00:42 257 11 gusting 18 5.6
2020-Jan-25 00:33 254 9 gusting 14 5.6
2020-Jan-25 00:24 254 8 gusting 13 5.6
2020-Jan-25 00:15 254 9 gusting 15 5.6
2020-Jan-25 00:06 257 10 gusting 16 5.6
2020-Jan-24 23:57 262 7 gusting 13 5.6
2020-Jan-24 23:48 263 6 gusting 12 5.6
2020-Jan-24 23:39 262 8 gusting 13 6.1
2020-Jan-24 23:30 263 6 gusting 13 6.1
2020-Jan-24 23:21 260 8 gusting 18 6.1
2020-Jan-24 23:12 260 6 gusting 13 6.1
2020-Jan-24 23:03 265 7 gusting 14 6.1
2020-Jan-24 22:54 262 7 gusting 14 6.1
2020-Jan-24 22:45 254 8 gusting 16 6.1
2020-Jan-24 22:36 260 8 gusting 13 6.1
2020-Jan-24 22:27 263 7 gusting 13 6.1
2020-Jan-24 22:18 259 7 gusting 13 6.1
2020-Jan-24 22:09 259 7 gusting 12 6.1
2020-Jan-24 22:00 255 7 gusting 12 6.1
2020-Jan-24 21:51 256 8 gusting 14 6.1
2020-Jan-24 21:42 255 7 gusting 14 6.1
2020-Jan-24 21:33 261 7 gusting 14 6.1
2020-Jan-24 21:24 264 6 gusting 14 6.7
2020-Jan-24 21:15 259 7 gusting 13 6.7
2020-Jan-24 21:06 255 7 gusting 13 6.7
2020-Jan-24 20:57 259 6 gusting 13 6.7
2020-Jan-24 20:48 263 7 gusting 13 6.7
2020-Jan-24 20:39 263 7 gusting 13 6.7
2020-Jan-24 20:30 258 8 gusting 13 6.7
2020-Jan-24 20:21 261 8 gusting 14 6.7
2020-Jan-24 20:12 260 8 gusting 14 6.7
2020-Jan-24 20:03 256 7 gusting 15 6.7
2020-Jan-24 19:54 257 9 gusting 15 6.7
2020-Jan-24 19:45 254 10 gusting 17 6.7
2020-Jan-24 19:36 255 8 gusting 15 6.7
2020-Jan-24 19:27 255 8 gusting 13 6.7
2020-Jan-24 19:18 252 7 gusting 13 6.7
2020-Jan-24 19:09 257 6 gusting 12 6.7
2020-Jan-24 19:00 260 7 gusting 13 6.7
2020-Jan-24 18:51 265 7 gusting 13 6.7
2020-Jan-24 18:42 264 7 gusting 13 6.7
2020-Jan-24 18:33 260 6 gusting 12 6.7
2020-Jan-24 18:24 257 6 gusting 13 6.1
2020-Jan-24 18:15 259 7 gusting 12 6.1
2020-Jan-24 18:06 259 6 gusting 13 6.1
2020-Jan-24 17:57 258 7 gusting 13 6.1
2020-Jan-24 17:48 253 7 gusting 12 6.1
2020-Jan-24 17:39 253 7 gusting 13 6.1
2020-Jan-24 17:30 253 8 gusting 13 6.1
2020-Jan-24 17:21 253 7 gusting 12 6.1
2020-Jan-24 17:12 250 9 gusting 13 6.1
2020-Jan-24 17:03 251 7 gusting 12 6.1
2020-Jan-24 16:54 257 7 gusting 14 6.1
2020-Jan-24 16:45 253 7 gusting 13 6.1
2020-Jan-24 16:36 251 8 gusting 16 6.1
2020-Jan-24 16:27 250 7 gusting 12 6.1
2020-Jan-24 16:18 249 6 gusting 11 6.1
2020-Jan-24 16:09 245 6 gusting 12 6.1
2020-Jan-24 16:00 251 7 gusting 11 6.1
2020-Jan-24 15:51 247 6 gusting 10 6.1
2020-Jan-24 15:42 252 7 gusting 13 6.1
2020-Jan-24 15:33 249 7 gusting 13 6.1
2020-Jan-24 15:24 247 8 gusting 13 6.1
2020-Jan-24 15:15 255 6 gusting 13 6.1
2020-Jan-24 15:06 252 7 gusting 12 6.1
2020-Jan-24 14:57 257 6 gusting 12 6.1
2020-Jan-24 14:48 261 6 gusting 12 6.1
2020-Jan-24 14:39 256 8 gusting 13 6.1
2020-Jan-24 14:30 253 8 gusting 13 6.1
2020-Jan-24 14:21 259 9 gusting 13 6.1
2020-Jan-24 14:12 253 9 gusting 13 6.1
2020-Jan-24 14:03 251 10 gusting 19 6.1
2020-Jan-24 13:54 249 10 gusting 18 6.1
2020-Jan-24 13:45 247 9 gusting 16 6.1
2020-Jan-24 13:36 249 11 gusting 19 6.1
2020-Jan-24 13:27 254 10 gusting 16 6.1
2020-Jan-24 13:18 260 9 gusting 13 6.1
2020-Jan-24 13:09 256 9 gusting 15 6.1
2020-Jan-24 13:00 257 9 gusting 14 6.7
2020-Jan-24 12:51 254 10 gusting 16 6.7
2020-Jan-24 12:42 255 10 gusting 16 6.7
2020-Jan-24 12:33 257 8 gusting 13 6.7
2020-Jan-24 12:24 262 8 gusting 16 6.7
2020-Jan-24 12:15 266 8 gusting 14 6.7
2020-Jan-24 12:06 260 10 gusting 20 6.7
2020-Jan-24 11:57 258 13 gusting 25 6.7
2020-Jan-24 11:48 258 11 gusting 18 6.7
2020-Jan-24 11:39 259 11 gusting 19 6.7
2020-Jan-24 11:30 258 12 gusting 20 6.7
2020-Jan-24 11:21 255 14 gusting 22 6.7
2020-Jan-24 11:12 255 13 gusting 21 6.7
2020-Jan-24 11:03 254 14 gusting 22 6.7
2020-Jan-24 10:54 250 15 gusting 27 6.7
2020-Jan-24 10:45 251 13 gusting 21 6.7
2020-Jan-24 10:36 250 13 gusting 23 6.7
2020-Jan-24 10:27 247 13 gusting 20 6.7
2020-Jan-24 10:18 253 13 gusting 21 6.7
2020-Jan-24 10:09 249 13 gusting 20 6.7
2020-Jan-24 10:00 250 13 gusting 20 6.7
2020-Jan-24 09:51 247 13 gusting 20 6.7
2020-Jan-24 09:42 249 12 gusting 19 6.1
2020-Jan-24 09:33 247 12 gusting 19 6.1
2020-Jan-24 09:24 249 11 gusting 16 6.1
2020-Jan-24 09:15 251 10 gusting 17 6.1
2020-Jan-24 09:06 253 11 gusting 17 6.1
2020-Jan-24 08:57 254 10 gusting 17 6.1
2020-Jan-24 08:48 255 10 gusting 16 6.1
2020-Jan-24 08:39 248 11 gusting 15 6.1
2020-Jan-24 08:30 252 11 gusting 16 6.1
2020-Jan-24 08:21 251 12 gusting 18 6.1
2020-Jan-24 08:12 253 10 gusting 16 6.1
2020-Jan-24 08:03 251 10 gusting 15 6.1
2020-Jan-24 07:54 253 10 gusting 18 5.6
2020-Jan-24 07:45 253 10 gusting 14 5.6
2020-Jan-24 07:36 255 11 gusting 17 5.6
2020-Jan-24 07:27 259 8 gusting 16 5.6
2020-Jan-24 07:18 258 10 gusting 16 5.6
2020-Jan-24 07:09 255 9 gusting 14 5.6
2020-Jan-24 07:00 258 11 gusting 17 5.6
2020-Jan-24 06:51 255 12 gusting 19 6.1
2020-Jan-24 06:42 253 12 gusting 18 6.1
2020-Jan-24 06:33 255 11 gusting 18 6.1
2020-Jan-24 06:24 257 9 gusting 15 6.1
2020-Jan-24 06:15 259 10 gusting 19 6.1
2020-Jan-24 06:06 257 10 gusting 18 6.1
2020-Jan-24 05:57 255 10 gusting 18 6.1
2020-Jan-24 05:48 253 11 gusting 18 6.1
2020-Jan-24 05:39 253 11 gusting 24 6.1
2020-Jan-24 05:30 253 9 gusting 18 6.1
2020-Jan-24 05:21 251 9 gusting 16 6.1
2020-Jan-24 05:12 254 9 gusting 15 6.1
2020-Jan-24 05:03 250 7 gusting 14 6.1
2020-Jan-24 04:54 248 9 gusting 16 6.1
2020-Jan-24 04:45 250 10 gusting 16 6.1
2020-Jan-24 04:36 244 6 gusting 13 6.1
2020-Jan-24 04:27 245 8 gusting 17 6.1
2020-Jan-24 04:18 244 8 gusting 14 6.1
2020-Jan-24 04:09 244 8 gusting 13 6.1
2020-Jan-24 04:00 240 8 gusting 16 6.1
2020-Jan-24 03:51 243 6 gusting 13 6.1
2020-Jan-24 03:42 247 7 gusting 13 6.1
2020-Jan-24 03:33 246 8 gusting 13 6.1
2020-Jan-24 03:24 247 7 gusting 12 6.1
2020-Jan-24 03:15 241 7 gusting 13 6.1
2020-Jan-24 03:06 243 8 gusting 12 6.1
2020-Jan-24 02:57 240 6 gusting 11 6.1
2020-Jan-24 02:48 245 6 gusting 12 6.1
2020-Jan-24 02:39 246 8 gusting 13 6.1
2020-Jan-24 02:30 245 6 gusting 11 6.1
2020-Jan-24 02:21 252 7 gusting 13 6.1
2020-Jan-24 02:12 247 6 gusting 12 6.1
2020-Jan-24 02:03 245 8 gusting 13 6.1
2020-Jan-24 01:54 246 7 gusting 13 6.1
2020-Jan-24 01:45 249 8 gusting 13 6.1
2020-Jan-24 01:36 250 8 gusting 13 6.1
2020-Jan-24 01:27 254 8 gusting 13 6.1
2020-Jan-24 01:18 252 8 gusting 13 6.1
2020-Jan-24 01:09 250 8 gusting 13 6.1
2020-Jan-24 01:00 250 7 gusting 14 6.1